[[{"header":{"parameterUnit":"m.s-1","parameterCategory":1,"la1":30.2991,"la2":30.254,"lo1":-89.0895,"lo2":-89.0444,"dy":0.0017,"dx":0.0017,"nx":28,"ny":28,"refTime":"2024-06-09T09:00:00:Z","depth":0,"parameterNumber":2,"parameterNumberName":"U-component_of_WINDS"},"data":[0,0,0,0,0,0,0,0,0,0,0,0,0,0,0,0,0,0,0,0,0,0,0,0,0,0,0,0,0,0,0,0,0,0,0,0,0,0,0,0,0,0,0,0,0,0,0,0,0,0,0,0,0,0,0,0,0,0,0.3172,0.3173,0,0.3302,0.3304,0.3305,0.3343,0.3342,0.3342,0.3341,0.3479,0.3483,0.3487,0,0,0,0,0,0,0,0,0,0,0,0,0,0.2958,0.2962,0.3172,0.3174,0.3175,0.3302,0.3304,0.3306,0.3343,0.3342,0.3341,0.3341,0.3477,0.3483,0.3488,0,0,0,0,0,0,0,0,0,0,0,0,0,0.3066,0.2963,0.3172,0.3209,0.3214,0.3302,0.3304,0.3306,0.3343,0.3342,0.3341,0.334,0.3476,0.3482,0.3488,0.355,0,0,0.3508,0.3511,0,0,0,0,0,0,0,0,0.306,0.3074,0.3202,0.3207,0.3212,0.3305,0.3279,0.3388,0.3344,0.3294,0.3341,0.334,0.3422,0.3433,0.346,0.3557,0.3563,0.3509,0.3513,0.3516,0.3518,0,0,0,0,0,0,0,0.3053,0.3069,0.3224,0.3204,0.321,0.322,0.3234,0.33,0.3363,0.3298,0.3301,0.3316,0.3425,0.3454,0.3464,0.3565,0.3509,0.3515,0.3519,0.3521,0.3717,0.3719,0,0,0,0,0,0,0.3038,0.3062,0.322,0.3228,0.3132,0.3225,0.3241,0.3276,0.3362,0.3374,0.3317,0.3317,0.3443,0.3456,0.3469,0.3546,0.3516,0.3522,0.3526,0.3716,0.3718,0.3719,0,0,0,0,0,0,0.3033,0.3052,0.3214,0.3146,0.3167,0.323,0.327,0.328,0.3308,0.3376,0.3388,0.3335,0.3443,0.3459,0.3529,0.3551,0.3525,0.3531,0.3715,0.3717,0.3718,0.3701,0,0,0,0,0,0,0.3027,0.305,0.3073,0.3146,0.3171,0.3272,0.3271,0.3283,0.3319,0.3321,0.3396,0.3407,0.3443,0.3519,0.3536,0.356,0.3536,0.3713,0.3716,0.3718,0.37,0.3702,0.3704,0,0,0,0,0,0.3019,0.3065,0.3074,0.3093,0.3201,0.3273,0.3287,0.3326,0.3321,0.3345,0.3388,0.3405,0.3546,0.3526,0.3545,0.3571,0.3712,0.3715,0.3718,0.3699,0.3702,0.3704,0,0,0,0,0,0,0.2995,0.3075,0.3087,0.3156,0.3207,0.3279,0.3311,0.3328,0.3383,0.3383,0.343,0.3447,0.3513,0.3549,0.3525,0.3635,0.3629,0.3636,0.3609,0.3612,0.3614,0.3604,0.3541,0,0,0,0,0,0.2997,0.3047,0.3115,0.317,0.3195,0.3248,0.3281,0.3307,0.3362,0.3384,0.3433,0.3487,0.3543,0.358,0.3635,0.3705,0.3722,0.3733,0.3735,0.3736,0.3742,0.3781,0.3786,0.3729,0.3729,0.3729,0,0,0.3003,0.3053,0.3082,0.3166,0.3209,0.3261,0.3266,0.3322,0.3361,0.3393,0.3461,0.3498,0.3562,0.3632,0.3665,0.3664,0.3761,0.374,0.374,0.3745,0.3784,0.3789,0.3794,0.3731,0.373,0.373,0,0,0.3041,0.3083,0.3133,0.3175,0.3239,0.3274,0.3286,0.3355,0.338,0.3449,0.3474,0.3522,0.3618,0.3662,0.3697,0.3749,0.3766,0.3766,0.3777,0.3814,0.3819,0.3823,0.3842,0.3848,0.3771,0.3771,0.3771,0,0.3041,0.3119,0.3158,0.3211,0.3247,0.3276,0.3328,0.3367,0.3446,0.3471,0.3468,0.3589,0.3634,0.3714,0.3726,0.3753,0.3769,0.3758,0.3815,0.382,0.3824,0.3842,0.3849,0.3771,0.3771,0.3771,0.3771,0,0.3116,0.3169,0.3202,0.3276,0.3316,0.3368,0.3415,0.3451,0.3472,0.3508,0.3577,0.3632,0.3698,0.3719,0.3742,0.3802,0.38,0.3805,0.3801,0.3828,0.3846,0.3853,0.377,0.377,0.377,0.377,0,0,0.3143,0.3235,0.3247,0.328,0.3351,0.3394,0.3447,0.3511,0.3541,0.3594,0.364,0.372,0.3725,0.3765,0.3792,0.3825,0.3862,0.3827,0.3829,0.3831,0.3932,0.3927,0.3934,0.3873,0.3875,0.3876,0.3926,0,0.3189,0.3284,0.332,0.3398,0.3448,0.3476,0.3522,0.3572,0.3606,0.3654,0.3692,0.3748,0.3751,0.3774,0.3808,0.385,0.3883,0.3847,0.3918,0.392,0.3901,0.3944,0.3939,0.3984,0.3934,0.3935,0.3936,0,0.3257,0.3308,0.3391,0.3455,0.3477,0.3518,0.3579,0.3624,0.368,0.3703,0.3746,0.3771,0.3828,0.3819,0.3899,0.3874,0.3905,0.393,0.3932,0.3941,0.393,0.3953,0.3999,0.4006,0.3947,0.3946,0.3945,0,0.3268,0.3358,0.3419,0.3447,0.3523,0.3551,0.3584,0.3639,0.3675,0.3728,0.3752,0.3811,0.3844,0.389,0.3931,0.392,0.4007,0.4001,0.4027,0.4026,0.4045,0.4043,0.4097,0.4064,0.4064,0.4064,0.4064,0,0.3316,0.3365,0.3425,0.3462,0.3518,0.3559,0.3614,0.3649,0.3697,0.3743,0.3771,0.3813,0.3864,0.3912,0.3945,0.4006,0.402,0.4041,0.4049,0.4038,0.4036,0.406,0.4058,0.4066,0.4066,0.4065,0.4065,0,0.3338,0.338,0.3448,0.3514,0.3531,0.357,0.3627,0.3664,0.3699,0.3756,0.3772,0.3827,0.3885,0.393,0.4007,0.4028,0.4093,0.4101,0.4073,0.4077,0.4101,0.4098,0.4172,0.4183,0.4143,0.4143,0.4143,0,0.3366,0.3405,0.3474,0.3505,0.3538,0.3589,0.3625,0.3666,0.3702,0.3768,0.3798,0.3858,0.3908,0.4001,0.4048,0.4107,0.4117,0.4139,0.4126,0.4114,0.4117,0.4115,0.4119,0.4141,0.4141,0.4141,0.4141,0,0.3412,0.343,0.348,0.3537,0.3578,0.3625,0.3673,0.3697,0.3747,0.3787,0.3846,0.3885,0.3962,0.4022,0.4084,0.412,0.4139,0.4144,0.4154,0.4144,0.4126,0.4135,0.4078,0.4143,0.4143,0.4143,0.4143,0.4143,0.3439,0.3473,0.3527,0.3581,0.3621,0.3664,0.3703,0.3741,0.3791,0.3856,0.3877,0.3938,0.3993,0.4079,0.4115,0.4164,0.4164,0.4178,0.4181,0.4184,0.4183,0.4117,0.4176,0.4176,0.4176,0.4176,0.4176,0,0.3485,0.3521,0.357,0.3635,0.3677,0.369,0.3743,0.3778,0.3831,0.3879,0.3928,0.3995,0.4053,0.4104,0.4164,0.4193,0.4203,0.4207,0.4206,0.4213,0.4179,0.4165,0.4198,0.4198,0.4198,0.4198,0.4198,0.4198,0.3515,0.3574,0.3598,0.3678,0.3713,0.3772,0.3801,0.3842,0.388,0.3954,0.4001,0.4033,0.4083,0.4146,0.42,0.4213,0.4234,0.4236,0.4252,0.4219,0.4216,0.4213,0.42,0.424,0.424,0.4282,0.4282,0.4283]},{"header":{"parameterUnit":"m.s-1","parameterCategory":1,"la1":30.2991,"la2":30.254,"lo1":-89.0895,"lo2":-89.0444,"dy":0.0017,"dx":0.0017,"nx":28,"ny":28,"refTime":"2024-06-09T09:00:00:Z","depth":0,"parameterNumber":3,"parameterNumberName":"V-component_of_WINDS"},"data":[0,0,0,0,0,0,0,0,0,0,0,0,0,0,0,0,0,0,0,0,0,0,0,0,0,0,0,0,0,0,0,0,0,0,0,0,0,0,0,0,0,0,0,0,0,0,0,0,0,0,0,0,0,0,0,0,0,0,3.161,3.161,0,3.1636,3.1636,3.1636,3.1644,3.1644,3.1644,3.1643,3.1666,3.1667,3.1668,0,0,0,0,0,0,0,0,0,0,0,0,0,3.1561,3.1562,3.161,3.161,3.1611,3.1636,3.1636,3.1636,3.1644,3.1644,3.1643,3.1643,3.1666,3.1667,3.1668,0,0,0,0,0,0,0,0,0,0,0,0,0,3.1584,3.1563,3.161,3.1617,3.1618,3.1636,3.1636,3.1636,3.1644,3.1644,3.1643,3.1643,3.1666,3.1667,3.1668,3.1678,0,0,3.1671,3.1672,0,0,0,0,0,0,0,0,3.1583,3.1586,3.1616,3.1617,3.1618,3.1636,3.1627,3.165,3.1644,3.1634,3.1643,3.1643,3.1656,3.1658,3.1663,3.168,3.168,3.1671,3.1672,3.1672,3.1673,0,0,0,0,0,0,0,3.1581,3.1585,3.162,3.1616,3.1618,3.1618,3.1621,3.1632,3.1646,3.1635,3.1636,3.1639,3.1657,3.1662,3.1664,3.1681,3.1671,3.1672,3.1673,3.1673,3.1703,3.1703,0,0,0,0,0,0,3.1579,3.1584,3.1619,3.1621,3.16,3.1619,3.1622,3.1631,3.1646,3.1648,3.1639,3.1639,3.166,3.1663,3.1665,3.1676,3.1672,3.1673,3.1674,3.1703,3.1703,3.1703,0,0,0,0,0,0,3.1578,3.1582,3.1618,3.1602,3.1607,3.162,3.1629,3.1631,3.1637,3.1649,3.1651,3.1642,3.166,3.1663,3.1674,3.1677,3.1674,3.1675,3.1703,3.1703,3.1703,3.17,0,0,0,0,0,0,3.1577,3.1582,3.1588,3.1603,3.1608,3.1629,3.163,3.1632,3.1639,3.1639,3.1652,3.1654,3.166,3.1673,3.1675,3.1678,3.1676,3.1702,3.1703,3.1703,3.17,3.17,3.17,0,0,0,0,0,3.1575,3.1586,3.1588,3.1592,3.1616,3.163,3.1632,3.164,3.1639,3.1644,3.1651,3.1654,3.1676,3.1674,3.1677,3.168,3.1702,3.1703,3.1703,3.1699,3.17,3.17,0,0,0,0,0,0,3.1571,3.1588,3.1591,3.1607,3.1617,3.1631,3.1637,3.1641,3.165,3.165,3.1658,3.1661,3.1671,3.1676,3.1674,3.1689,3.1689,3.169,3.1685,3.1685,3.1686,3.1684,3.1677,0,0,0,0,0,3.1572,3.1583,3.1597,3.161,3.1615,3.1625,3.1631,3.1636,3.1646,3.165,3.1658,3.1667,3.1675,3.1681,3.1689,3.17,3.1702,3.1703,3.1704,3.1704,3.1704,3.1707,3.1708,3.1704,3.1704,3.1704,0,0,3.1574,3.1585,3.1592,3.1609,3.1618,3.1627,3.1629,3.1639,3.1646,3.1652,3.1663,3.1668,3.1678,3.1688,3.1693,3.1693,3.1705,3.1704,3.1704,3.1704,3.1708,3.1708,3.1708,3.1704,3.1704,3.1704,0,0,3.1583,3.1593,3.1604,3.1611,3.1623,3.163,3.1632,3.1645,3.1649,3.166,3.1664,3.167,3.1686,3.1691,3.1696,3.1703,3.1705,3.1705,3.1706,3.1709,3.1709,3.1709,3.171,3.171,3.1706,3.1706,3.1706,0,3.1584,3.16,3.1609,3.1618,3.1625,3.163,3.1639,3.1646,3.1659,3.1663,3.1663,3.168,3.1687,3.1697,3.1699,3.1703,3.1704,3.1704,3.1709,3.1709,3.1709,3.171,3.171,3.1706,3.1706,3.1706,3.1706,0,3.1599,3.161,3.1617,3.163,3.1637,3.1646,3.1654,3.1659,3.1662,3.1668,3.1677,3.1685,3.1694,3.1697,3.1701,3.1707,3.1706,3.1707,3.1707,3.1709,3.171,3.171,3.1706,3.1706,3.1706,3.1706,0,0,3.1608,3.1624,3.1626,3.1631,3.1643,3.165,3.1658,3.1667,3.1671,3.1679,3.1685,3.1696,3.1696,3.1701,3.1705,3.1708,3.171,3.1708,3.1709,3.1707,3.1714,3.1713,3.1713,3.1711,3.1711,3.1711,3.1713,0,3.1617,3.1634,3.1639,3.1652,3.166,3.1663,3.167,3.1676,3.1681,3.1687,3.1691,3.1698,3.1699,3.1702,3.1705,3.1709,3.1711,3.1709,3.1714,3.1714,3.1712,3.1714,3.1713,3.1715,3.1713,3.1714,3.1714,0,3.1631,3.1639,3.1652,3.166,3.1663,3.167,3.1677,3.1683,3.1689,3.1692,3.1697,3.17,3.1705,3.1705,3.1712,3.171,3.1712,3.1714,3.1714,3.1715,3.1714,3.1713,3.1715,3.1715,3.1714,3.1714,3.1714,0,3.1633,3.1648,3.1656,3.166,3.1671,3.1674,3.1678,3.1685,3.1689,3.1694,3.1697,3.1703,3.1706,3.171,3.1713,3.1713,3.1718,3.1719,3.1719,3.1719,3.1721,3.172,3.1722,3.1723,3.1723,3.1723,3.1723,0,3.1643,3.165,3.1657,3.1663,3.167,3.1675,3.1682,3.1686,3.1691,3.1695,3.1698,3.1702,3.1707,3.1711,3.1713,3.1717,3.1719,3.172,3.172,3.1719,3.1719,3.1721,3.172,3.1723,3.1723,3.1723,3.1723,0,3.1647,3.1653,3.1662,3.167,3.1672,3.1677,3.1683,3.1687,3.169,3.1696,3.1697,3.1703,3.1707,3.1711,3.1717,3.1718,3.1721,3.1723,3.172,3.172,3.172,3.1719,3.1722,3.1722,3.1724,3.1724,3.1724,0,3.1652,3.1658,3.1666,3.1669,3.1673,3.1679,3.1683,3.1687,3.1691,3.1696,3.1699,3.1704,3.1708,3.1714,3.1717,3.1721,3.1721,3.1722,3.1722,3.172,3.172,3.1719,3.1719,3.1722,3.1722,3.1722,3.1722,0,3.166,3.1662,3.1668,3.1673,3.1678,3.1683,3.1687,3.1689,3.1694,3.1697,3.1702,3.1705,3.171,3.1714,3.1717,3.172,3.1721,3.1722,3.1722,3.172,3.1718,3.1718,3.1718,3.1722,3.1722,3.1722,3.1722,3.1722,3.1664,3.1668,3.1673,3.1679,3.1682,3.1686,3.1689,3.1693,3.1697,3.1702,3.1704,3.1707,3.1711,3.1716,3.1718,3.172,3.172,3.172,3.172,3.172,3.1719,3.1718,3.172,3.172,3.172,3.172,3.172,0,3.167,3.1673,3.1678,3.1684,3.1688,3.1689,3.1693,3.1695,3.1699,3.1702,3.1706,3.1709,3.1712,3.1715,3.1718,3.1718,3.1719,3.1719,3.1718,3.1718,3.172,3.1719,3.1718,3.1718,3.1718,3.1718,3.1718,3.1718,3.1674,3.168,3.1681,3.1688,3.1691,3.1695,3.1697,3.1699,3.1702,3.1706,3.1708,3.171,3.1712,3.1715,3.1717,3.1717,3.1717,3.1717,3.1717,3.1718,3.1719,3.1719,3.1718,3.1717,3.1717,3.1716,3.1716,3.1716]}]]